Home > Weather > Kragerø > Past weeks

Flag for Norway Weather for the Past 2 Weeks in Kragerø, Norway

Now
24 °F

Cold.


Feels Like: 19 °F
Forecast: 17 / 33 °F
Wind: 3 mph from Northeast

Location: Jomfruland Fyr

Current Time: Feb 15, 2016 at 12:37:19 AM

Latest Report: Feb 14, 2016 at 11:00 PM


Visibility: N/A

Pressure: 29.80 "Hg

Humidity: 76%

Dew point: 17 °F

Location of KragerøLocation

Historic Weather in Kragerø — Graph

°F

Kragerø Temperature Yesterday

Maximum temperature yesterday: 29 °F (at 2:00 PM)
Minimum temperature yesterday: 22 °F (at 4:00 AM)
Average temperature yesterday: 26 °F

High & Low Weather Summary for the Past Weeks

 TemperatureHumidityPressure
High43 °F (Feb 7, 3:00 AM)97% (Feb 5, 11:00 PM)29.95 "Hg (Feb 5, 11:00 PM)
Low22 °F (Feb 14, 4:00 AM)35% (Feb 12, 2:00 PM)28.73 "Hg (Feb 9, 3:00 AM)
Average36 °F75%29.34 "Hg
* Reported Jan 30 10:00 PM — Feb 14 10:00 PM, Kragerø, Weather by CustomWeather, © 2016

Note: Actual official high and low records may vary slightly from our data, if they occured in-between our weather recording intervals... More about our weather records

Advertising

Kragerø Weather History for the Previous 24 Hours

 ConditionsComfort  
Time TempWeatherWind HumidityBarometerVisibility
10:00 PM
Sun, Feb 14
25 °FCold.3 mph76%29.78 "HgN/A
9:00 PM25 °FChilly.2 mph74%29.75 "HgN/A
8:00 PM26 °FChilly.3 mph75%29.73 "HgN/A
7:00 PM26 °FChilly.2 mph74%29.70 "HgN/A
6:00 PM27 °FChilly.2 mph67%29.68 "HgN/A
5:00 PM28 °FChilly.2 mph65%29.66 "HgN/A
4:00 PM29 °FChilly.2 mph63%29.65 "HgN/A
3:00 PM29 °FChilly.2 mph63%29.63 "HgN/A
2:00 PM29 °FChilly.3 mph62%29.63 "HgN/A
1:00 PM29 °FChilly.3 mph66%29.62 "HgN/A
12:00 PM28 °FChilly.5 mph66%29.62 "HgN/A
11:00 AM27 °FChilly.3 mph68%29.60 "HgN/A
10:00 AM26 °FChilly.5 mph72%29.59 "HgN/A
9:00 AM23 °FCold.2 mph80%29.58 "HgN/A
8:00 AM22 °FCold.2 mph80%29.56 "HgN/A
7:00 AM23 °FCold.2 mph81%29.55 "HgN/A
6:00 AM23 °FCold.1 mph82%29.54 "HgN/A
5:00 AM22 °FCold.2 mph83%29.54 "HgN/A
4:00 AM22 °FCold.2 mph86%29.50 "HgN/A
1:00 AM25 °FCold.2 mph89%29.50 "HgN/A
Weather by CustomWeather, © 2016

See weather overviewHow to use our weather pages